San Antonio, Texas, United States (78266)
Lat: 29.42N, Lon: 98.49W
Wx Zone: TXZ206
Local Info
Past Weather Observations for Today

NOTE: This archive is for the closest National Weather Service station to San Antonio. Information may differ from the station used for current weather conditions.

Click here for Long-term Archive

Time Weather Temperature Dewpoint Humidity Pressure Winds Precip Visibility
12:58
Mostly Cloudy
82°F / 28°C 73°F / 23°C 74% 29.89 in
(1012 mb)
ENE 4.6 mph
(ENE 7 kph)
0.00 in
(0.00 mm)
10SM
11:58
Mostly Cloudy
79°F / 26°C 75°F / 24°C 89% 29.92 in
(1013 mb)
Calm 0.44 in
(11.18 mm)
10SM
11:52
Mostly Cloudy
Drizzle
79°F / 26°C 75°F / 24°C 89% 29.92 in
(1013 mb)
N 1.2 mph
(N 2 kph)
- 10SM
11:47
Mostly Cloudy
Light Rain
79°F / 26°C 75°F / 24°C 89% 29.92 in
(1013 mb)
NNE 1.2 mph
(NNE 2 kph)
- 6SM
11:42
Mostly Cloudy
Light Rain
77°F / 25°C 75°F / 24°C 94% 29.92 in
(1013 mb)
Calm - 6SM
11:33
Mostly Cloudy
Rain
77°F / 25°C 75°F / 24°C 94% 29.92 in
(1013 mb)
Variable 1.2 mph
(Variable 2 kph)
- 4SM
11:32
Mostly Cloudy
Drizzle
77°F / 25°C 75°F / 24°C 94% 29.92 in
(1013 mb)
SE 2.3 mph
(SE 4 kph)
- 10SM
11:19
Mostly Cloudy
77°F / 25°C 73°F / 23°C 89% 29.92 in
(1013 mb)
NE 6.9 mph
(NE 11 kph)
- 10SM
11:12
Mostly Cloudy
Light Rain
77°F / 25°C 73°F / 23°C 89% 29.92 in
(1013 mb)
NNE 9.2 mph
(NNE 15 kph)
- 7SM
11:02
Overcast
Light Rain
79°F / 26°C 72°F / 22°C 79% 29.95 in
(1014 mb)
NNW 10.4 mph
(NNW 17 kph)
- 5SM
10:58
Mostly Cloudy
Rain
79°F / 26°C 73°F / 23°C 84% 29.95 in
(1014 mb)
Variable 4.6 mph
(Variable 7 kph)
0.36 in
(9.14 mm)
2SM
10:54
Overcast
Rain
79°F / 26°C 73°F / 23°C 84% 29.95 in
(1014 mb)
N 4.6 mph
(N 7 kph)
- 3SM
10:52
Overcast
Light Rain
79°F / 26°C 73°F / 23°C 84% 29.92 in
(1013 mb)
N 5.8 mph
(N 9 kph)
- 7SM
10:47
Overcast
Light Rain
79°F / 26°C 73°F / 23°C 84% 29.92 in
(1013 mb)
N 5.8 mph
(N 9 kph)
- 7SM
10:28
Mostly Cloudy
Showers
82°F / 28°C 73°F / 23°C 74% 29.92 in
(1013 mb)
SW 12.7 mph
(SW 20 kph)
- 5SM
10:23
Overcast
Showers
82°F / 28°C 73°F / 23°C 74% 29.92 in
(1013 mb)
SW 3.5 mph
(SW 6 kph)
- 5SM
10:10
Mostly Cloudy
82°F / 28°C 73°F / 23°C 74% 29.92 in
(1013 mb)
Variable 4.6 mph
(Variable 7 kph)
- 10SM
09:58
Mostly Cloudy
82°F / 28°C 73°F / 23°C 74% 29.92 in
(1013 mb)
E 4.6 mph
(E 7 kph)
- 10SM
09:20
Overcast
81°F / 27°C 73°F / 23°C 79% 29.92 in
(1013 mb)
Variable 3.5 mph
(Variable 6 kph)
- 10SM
09:13
Overcast
81°F / 27°C 75°F / 24°C 84% 29.95 in
(1014 mb)
S 5.8 mph
(S 9 kph)
- 10SM
08:58
Overcast
79°F / 26°C 75°F / 24°C 89% 29.95 in
(1014 mb)
S 5.8 mph
(S 9 kph)
- 10SM
08:23
Mostly Cloudy
77°F / 25°C 75°F / 24°C 94% 29.92 in
(1013 mb)
E 4.6 mph
(E 7 kph)
- 7SM
07:58
Overcast
Fog And Mist
77°F / 25°C 75°F / 24°C 94% 29.92 in
(1013 mb)
E 5.8 mph
(E 9 kph)
- 6SM
07:46
Overcast
Fog And Mist
77°F / 25°C 75°F / 24°C 94% 29.92 in
(1013 mb)
E 4.6 mph
(E 7 kph)
- 5SM
07:28
Overcast
Fog And Mist
75°F / 24°C 75°F / 24°C 100% 29.92 in
(1013 mb)
E 4.6 mph
(E 7 kph)
- 2 1/2SM
07:18
Overcast
Fog And Mist
75°F / 24°C 75°F / 24°C 100% 29.92 in
(1013 mb)
E 3.5 mph
(E 6 kph)
- 5SM
07:03
Overcast
Fog And Mist
75°F / 24°C 75°F / 24°C 100% 29.92 in
(1013 mb)
ENE 3.5 mph
(ENE 6 kph)
- 3SM
06:58
Overcast
Fog And Mist
75°F / 24°C 75°F / 24°C 100% 29.92 in
(1013 mb)
ENE 3.5 mph
(ENE 6 kph)
- 2 SM
06:53
Overcast
Fog And Mist
75°F / 24°C 75°F / 24°C 100% 29.89 in
(1012 mb)
ENE 2.3 mph
(ENE 4 kph)
- 2SM
06:40
Obscured
Fog And Mist
75°F / 24°C 75°F / 24°C 100% 29.89 in
(1012 mb)
E 3.5 mph
(E 6 kph)
- 1SM
06:27
Obscured
Fog And Mist
75°F / 24°C 75°F / 24°C 100% 29.89 in
(1012 mb)
E 3.5 mph
(E 6 kph)
- 2SM
06:18
Overcast
Fog And Mist
75°F / 24°C 73°F / 23°C 94% 29.89 in
(1012 mb)
E 2.3 mph
(E 4 kph)
- 5SM
05:58
Overcast
Fog And Mist
75°F / 24°C 73°F / 23°C 94% 29.89 in
(1012 mb)
ENE 3.5 mph
(ENE 6 kph)
- 4SM
05:48
Overcast
Fog And Mist
75°F / 24°C 73°F / 23°C 94% 29.89 in
(1012 mb)
ENE 3.5 mph
(ENE 6 kph)
- 3SM
05:08
Overcast
73°F / 23°C 73°F / 23°C 100% 29.89 in
(1012 mb)
ENE 2.3 mph
(ENE 4 kph)
- 10SM
04:58
Mostly Cloudy
75°F / 24°C 73°F / 23°C 94% 29.89 in
(1012 mb)
NE 2.3 mph
(NE 4 kph)
- 10SM
04:45
Mostly Cloudy
73°F / 23°C 73°F / 23°C 100% 29.89 in
(1012 mb)
NE 2.3 mph
(NE 4 kph)
- 10SM
04:40
Mostly Cloudy
73°F / 23°C 73°F / 23°C 100% 29.89 in
(1012 mb)
ENE 1.2 mph
(ENE 2 kph)
- 10SM
04:39
Mostly Cloudy
73°F / 23°C 73°F / 23°C 100% 29.89 in
(1012 mb)
ENE 1.2 mph
(ENE 2 kph)
- 10SM
04:19
Mostly Cloudy
75°F / 24°C 73°F / 23°C 94% 29.89 in
(1012 mb)
Calm - 10SM
04:14
Mostly Cloudy
75°F / 24°C 73°F / 23°C 94% 29.89 in
(1012 mb)
Calm - 10SM
04:08
Mostly Cloudy
75°F / 24°C 73°F / 23°C 94% 29.89 in
(1012 mb)
NE 1.2 mph
(NE 2 kph)
- 10SM
03:58
Mostly Cloudy
75°F / 24°C 73°F / 23°C 94% 29.89 in
(1012 mb)
Calm - 10SM
03:18
Overcast
75°F / 24°C 73°F / 23°C 94% 29.89 in
(1012 mb)
Calm - 10SM
03:13
Overcast
75°F / 24°C 73°F / 23°C 94% 29.89 in
(1012 mb)
Calm - 10SM
03:03
Overcast
75°F / 24°C 73°F / 23°C 94% 29.89 in
(1012 mb)
E 1.2 mph
(E 2 kph)
- 10SM
02:58
Overcast
75°F / 24°C 73°F / 23°C 94% 29.89 in
(1012 mb)
Calm - 10SM
02:53
Overcast
75°F / 24°C 72°F / 22°C 89% 29.89 in
(1012 mb)
Calm - 10SM
02:43
Overcast
75°F / 24°C 73°F / 23°C 94% 29.89 in
(1012 mb)
NW 2.3 mph
(NW 4 kph)
- 10SM
02:28
Overcast
75°F / 24°C 73°F / 23°C 94% 29.89 in
(1012 mb)
NNW 1.2 mph
(NNW 2 kph)
- 10SM
02:23
Overcast
75°F / 24°C 72°F / 22°C 89% 29.89 in
(1012 mb)
N 1.2 mph
(N 2 kph)
- 10SM
01:58
Overcast
73°F / 23°C 72°F / 22°C 94% 29.89 in
(1012 mb)
N 3.5 mph
(N 6 kph)
- 10SM
00:58
Overcast
75°F / 24°C 72°F / 22°C 89% 29.89 in
(1012 mb)
SSE 2.3 mph
(SSE 4 kph)
- 10SM
00:03
Overcast
73°F / 23°C 72°F / 22°C 94% 29.89 in
(1012 mb)
Calm - 10SM
Time Weather Temperature Dewpoint Humidity Pressure Winds Precip Visibility


Weather for websites

WeatherForYou.com, LLC is not responsible for any damages or problems caused by this service. Current weather conditions are obtained from the closest station including government and personal stations which may have varying degrees of accuracy. Weather forecasts are derived from the NOAA NDFD. Like all things, this site belongs to Jesus Christ... He just trusts me to maintain it. If you have any questions or comments email webmaster@weatherforyou.com

Copyright © 2014, WeatherForYou.com LLC. All rights reserved.